Preview of NWS' New Version of Forecast
This preview is not operational and should not be used for support decisions.

Regional Weather Roundup (RWR)

Issued by National Weather Service (NWS)

                            
000
ASUS44 KMEG 230300
RWRTN 
TENNESSEE HOURLY STATE WEATHER ROUNDUP
NATIONAL WEATHER SERVICE MEMPHIS TN
1000 PM CDT WED MAY 22 2019

TNZ002-004-019-021-049-052-054-088>092-230400-
WEST TENNESSEE
  
CITY           SKY/WX    TMP DP  RH WIND       PRES   REMARKS
MEMPHIS INTL   FAIR      82  73  74 S12       29.99R                  
NWS MEMPHIS      N/A     81 N/A N/A MISG        N/A                   
JACKSON        FAIR      80  72  76 S9        30.02R                  
DYERSBURG      FAIR      80  72  76 S3        29.99R                  
$$

TNZ008-025-027-028-033-062-065-066-230400-
NORTH MIDDLE TENNESSEE
  
CITY           SKY/WX    TMP DP  RH WIND       PRES   REMARKS
NASHVILLE      FAIR      80  56  43 S13G23    30.08R                  
CLARKSVILLE    FAIR      79  67  66 S7        30.03R                  
SMYRNA         FAIR      77  59  53 S6        30.09R                  
CROSSVILLE     FAIR      67  57  70 CALM      30.18R                  
$$

TNZ061-075-076-078-094-096-097-230400-
SOUTH MIDDLE TENNESSEE
  
CITY           SKY/WX    TMP DP  RH WIND       PRES   REMARKS
$$

TNZ017-018-042-046-047-230400-
NORTHEAST TENNESSEE
  
CITY           SKY/WX    TMP DP  RH WIND       PRES   REMARKS
TRI CITIES     FAIR      75  62  64 SE5       30.20R                  
$$

TNZ012-013-036-069-073-074-230400-
CENTRAL EAST TENNESSEE
  
CITY           SKY/WX    TMP DP  RH WIND       PRES   REMARKS
KNOXVILLE      NOT AVBL                                               
OAK RIDGE      FAIR      75  64  68 CALM      30.15R                  
$$

TNZ083-085-099-230400-
SOUTHEAST TENNESSEE
  
CITY           SKY/WX    TMP DP  RH WIND       PRES   REMARKS
CHATTANOOGA    FAIR      78  65  63 SE6       30.13R                  
$$

SKY/WX REPORTED AS FAIR MEANS FEW OR NO CLOUDS BELOW
12 THOUSAND FEET.